Year,Month,Day,Hour,Minute,Value (Times are PST for temperature in C)
2015,07,05,00,00,17.60
2015,07,05,00,01,17.60
2015,07,05,00,02,17.60
2015,07,05,00,03,17.60
2015,07,05,00,04,17.50
2015,07,05,00,05,17.50
2015,07,05,00,06,17.50
2015,07,05,00,07,17.50
2015,07,05,00,08,17.60
2015,07,05,00,09,17.60
2015,07,05,00,10,17.60
2015,07,05,00,11,17.70
2015,07,05,00,12,17.70
2015,07,05,00,13,17.70
2015,07,05,00,14,17.70
2015,07,05,00,15,17.70
2015,07,05,00,16,17.70
2015,07,05,00,17,17.70
2015,07,05,00,18,17.70
2015,07,05,00,19,17.60
2015,07,05,00,20,17.60
2015,07,05,00,21,17.60
2015,07,05,00,22,17.60
2015,07,05,00,23,17.60
2015,07,05,00,24,17.50
2015,07,05,00,25,17.50
2015,07,05,00,26,17.40
2015,07,05,00,27,17.40
2015,07,05,00,28,17.40
2015,07,05,00,29,17.40
2015,07,05,00,30,17.50
2015,07,05,00,31,17.50
2015,07,05,00,32,17.60
2015,07,05,00,33,17.60
2015,07,05,00,34,17.60
2015,07,05,00,35,17.60
2015,07,05,00,36,17.60
2015,07,05,00,37,17.60
2015,07,05,00,38,17.60
2015,07,05,00,39,17.70
2015,07,05,00,40,17.70
2015,07,05,00,41,17.70
2015,07,05,00,42,17.60
2015,07,05,00,43,17.60
2015,07,05,00,44,17.60
2015,07,05,00,45,17.60
2015,07,05,00,46,17.60
2015,07,05,00,47,17.50
2015,07,05,00,48,17.50
2015,07,05,00,49,17.50
2015,07,05,00,50,17.50
2015,07,05,00,51,17.40
2015,07,05,00,52,17.40
2015,07,05,00,53,17.50
2015,07,05,00,54,17.50
2015,07,05,00,55,17.50
2015,07,05,00,56,17.60
2015,07,05,00,57,17.60
2015,07,05,00,58,17.60
2015,07,05,00,59,17.50
2015,07,05,01,00,17.50
2015,07,05,01,01,17.50
2015,07,05,01,02,17.50
2015,07,05,01,03,17.50
2015,07,05,01,04,17.50
2015,07,05,01,05,17.50
2015,07,05,01,06,17.40
2015,07,05,01,07,17.40
2015,07,05,01,08,17.40
2015,07,05,01,09,17.40
2015,07,05,01,10,17.40
2015,07,05,01,11,17.40
2015,07,05,01,12,17.40
2015,07,05,01,13,17.40
2015,07,05,01,14,17.50
2015,07,05,01,15,17.50
2015,07,05,01,16,17.50
2015,07,05,01,17,17.50
2015,07,05,01,18,17.50
2015,07,05,01,19,17.50
2015,07,05,01,20,17.40
2015,07,05,01,21,17.40
2015,07,05,01,22,17.40
2015,07,05,01,23,17.30
2015,07,05,01,24,17.30
2015,07,05,01,25,17.20
2015,07,05,01,26,17.20
2015,07,05,01,27,17.20
2015,07,05,01,28,17.20
2015,07,05,01,29,17.20
2015,07,05,01,30,17.20
2015,07,05,01,31,17.20
2015,07,05,01,32,17.20
2015,07,05,01,33,17.30
2015,07,05,01,34,17.30
2015,07,05,01,35,17.30
2015,07,05,01,36,17.30
2015,07,05,01,37,17.30
2015,07,05,01,38,17.30
2015,07,05,01,39,17.30
2015,07,05,01,40,17.30
2015,07,05,01,41,17.40
2015,07,05,01,42,17.40
2015,07,05,01,43,17.40
2015,07,05,01,44,17.40
2015,07,05,01,45,17.40
2015,07,05,01,46,17.40
2015,07,05,01,47,17.40
2015,07,05,01,48,17.50
2015,07,05,01,49,17.50
2015,07,05,01,50,17.50
2015,07,05,01,51,17.50
2015,07,05,01,52,17.50
2015,07,05,01,53,17.50
2015,07,05,01,54,17.50
2015,07,05,01,55,17.50
2015,07,05,01,56,17.40
2015,07,05,01,57,17.40
2015,07,05,01,58,17.40
2015,07,05,01,59,17.40
2015,07,05,02,00,17.30
2015,07,05,02,01,17.30
2015,07,05,02,02,17.20
2015,07,05,02,03,17.20
2015,07,05,02,04,17.20
2015,07,05,02,05,17.20
2015,07,05,02,06,17.20
2015,07,05,02,07,17.20
2015,07,05,02,08,17.10
2015,07,05,02,09,17.10
2015,07,05,02,10,17.10
2015,07,05,02,11,17.10
2015,07,05,02,12,17.10
2015,07,05,02,13,17.10
2015,07,05,02,14,17.00
2015,07,05,02,15,17.00
2015,07,05,02,16,17.00
2015,07,05,02,17,16.90
2015,07,05,02,18,16.90
2015,07,05,02,19,16.90
2015,07,05,02,20,16.80
2015,07,05,02,21,16.80
2015,07,05,02,22,16.80
2015,07,05,02,23,16.80
2015,07,05,02,24,16.80
2015,07,05,02,25,16.80
2015,07,05,02,26,16.80
2015,07,05,02,27,16.80
2015,07,05,02,28,16.80
2015,07,05,02,29,16.80
2015,07,05,02,30,16.70
2015,07,05,02,31,16.70
2015,07,05,02,32,16.70
2015,07,05,02,33,16.60
2015,07,05,02,34,16.60
2015,07,05,02,35,16.50
2015,07,05,02,36,16.50
2015,07,05,02,37,16.40
2015,07,05,02,38,16.40
2015,07,05,02,39,16.30
2015,07,05,02,40,16.30
2015,07,05,02,41,16.30
2015,07,05,02,42,16.20
2015,07,05,02,43,16.20
2015,07,05,02,44,16.20
2015,07,05,02,45,16.20
2015,07,05,02,46,16.10
2015,07,05,02,47,16.10
2015,07,05,02,48,16.10
2015,07,05,02,49,16.10
2015,07,05,02,50,16.10
2015,07,05,02,51,16.00
2015,07,05,02,52,16.00
2015,07,05,02,53,16.00
2015,07,05,02,54,16.00
2015,07,05,02,55,16.00
2015,07,05,02,56,16.00
2015,07,05,02,57,15.90
2015,07,05,02,58,15.90
2015,07,05,02,59,15.90
2015,07,05,03,00,15.90
2015,07,05,03,01,15.90
2015,07,05,03,02,15.80
2015,07,05,03,03,15.80
2015,07,05,03,04,15.80
2015,07,05,03,05,15.80
2015,07,05,03,06,15.80
2015,07,05,03,07,15.80
2015,07,05,03,08,15.80
2015,07,05,03,09,15.80
2015,07,05,03,10,15.80
2015,07,05,03,11,15.80
2015,07,05,03,12,15.70
2015,07,05,03,13,15.70
2015,07,05,03,14,15.70
2015,07,05,03,15,15.70
2015,07,05,03,16,15.70
2015,07,05,03,17,15.60
2015,07,05,03,18,15.60
2015,07,05,03,19,15.60
2015,07,05,03,20,15.50
2015,07,05,03,21,15.50
2015,07,05,03,22,15.50
2015,07,05,03,23,15.40
2015,07,05,03,24,15.40
2015,07,05,03,25,15.40
2015,07,05,03,26,15.40
2015,07,05,03,27,15.40
2015,07,05,03,28,15.40
2015,07,05,03,29,15.30
2015,07,05,03,30,15.40
2015,07,05,03,31,15.40
2015,07,05,03,32,15.40
2015,07,05,03,33,15.40
2015,07,05,03,34,15.50
2015,07,05,03,35,15.50
2015,07,05,03,36,15.60
2015,07,05,03,37,15.70
2015,07,05,03,38,15.80
2015,07,05,03,39,15.90
2015,07,05,03,40,15.90
2015,07,05,03,41,16.00
2015,07,05,03,42,16.10
2015,07,05,03,43,16.10
2015,07,05,03,44,16.10
2015,07,05,03,45,16.20
2015,07,05,03,46,16.20
2015,07,05,03,47,16.20
2015,07,05,03,48,16.20
2015,07,05,03,49,16.20
2015,07,05,03,50,16.20
2015,07,05,03,51,16.30
2015,07,05,03,52,16.30
2015,07,05,03,53,16.30
2015,07,05,03,54,16.30
2015,07,05,03,55,16.30
2015,07,05,03,56,16.30
2015,07,05,03,57,16.40
2015,07,05,03,58,16.40
2015,07,05,03,59,16.40
2015,07,05,04,00,16.40
2015,07,05,04,01,16.40
2015,07,05,04,02,16.40
2015,07,05,04,03,16.40
2015,07,05,04,04,16.40
2015,07,05,04,05,16.30
2015,07,05,04,06,16.30
2015,07,05,04,07,16.20
2015,07,05,04,08,16.20
2015,07,05,04,09,16.10
2015,07,05,04,10,16.00
2015,07,05,04,11,16.00
2015,07,05,04,12,15.90
2015,07,05,04,13,15.80
2015,07,05,04,14,15.80
2015,07,05,04,15,15.80
2015,07,05,04,16,15.70
2015,07,05,04,17,15.70
2015,07,05,04,18,15.60
2015,07,05,04,19,15.60
2015,07,05,04,20,15.60
2015,07,05,04,21,15.60
2015,07,05,04,22,15.50
2015,07,05,04,23,15.50
2015,07,05,04,24,15.50
2015,07,05,04,25,15.50
2015,07,05,04,26,15.60
2015,07,05,04,27,15.60
2015,07,05,04,28,15.70
2015,07,05,04,29,15.80
2015,07,05,04,30,15.80
2015,07,05,04,31,15.90
2015,07,05,04,32,16.00
2015,07,05,04,33,16.00
2015,07,05,04,34,16.10
2015,07,05,04,35,16.10
2015,07,05,04,36,16.20
2015,07,05,04,37,16.20
2015,07,05,04,38,16.20
2015,07,05,04,39,16.30
2015,07,05,04,40,16.30
2015,07,05,04,41,16.30
2015,07,05,04,42,16.30
2015,07,05,04,43,16.30
2015,07,05,04,44,16.20
2015,07,05,04,45,16.20
2015,07,05,04,46,16.20
2015,07,05,04,47,16.20
2015,07,05,04,48,16.20
2015,07,05,04,49,16.20
2015,07,05,04,50,16.10
2015,07,05,04,51,16.10
2015,07,05,04,52,16.10
2015,07,05,04,53,16.00
2015,07,05,04,54,16.00
2015,07,05,04,55,16.00
2015,07,05,04,56,15.90
2015,07,05,04,57,15.90
2015,07,05,04,58,15.90
2015,07,05,04,59,15.90
2015,07,05,05,00,15.80
2015,07,05,05,01,15.80
2015,07,05,05,02,15.80
2015,07,05,05,03,15.80
2015,07,05,05,04,15.80
2015,07,05,05,05,15.80
2015,07,05,05,06,15.70
2015,07,05,05,07,15.70
2015,07,05,05,08,15.60
2015,07,05,05,09,15.60
2015,07,05,05,10,15.60
2015,07,05,05,11,15.50
2015,07,05,05,12,15.50
2015,07,05,05,13,15.50
2015,07,05,05,14,15.60
2015,07,05,05,15,15.60
2015,07,05,05,16,15.60
2015,07,05,05,17,15.50
2015,07,05,05,18,15.60
2015,07,05,05,19,15.50
2015,07,05,05,20,15.50
2015,07,05,05,21,15.40
2015,07,05,05,22,15.40
2015,07,05,05,23,15.30
2015,07,05,05,24,15.30
2015,07,05,05,25,15.30
2015,07,05,05,26,15.30
2015,07,05,05,27,15.30
2015,07,05,05,28,15.30
2015,07,05,05,29,15.30
2015,07,05,05,30,15.30
2015,07,05,05,31,15.40
2015,07,05,05,32,15.40
2015,07,05,05,33,15.40
2015,07,05,05,34,15.40
2015,07,05,05,35,15.30
2015,07,05,05,36,15.30
2015,07,05,05,37,15.30
2015,07,05,05,38,15.30
2015,07,05,05,39,15.20
2015,07,05,05,40,15.20
2015,07,05,05,41,15.20
2015,07,05,05,42,15.20
2015,07,05,05,43,15.20
2015,07,05,05,44,15.10
2015,07,05,05,45,15.10
2015,07,05,05,46,15.10
2015,07,05,05,47,15.10
2015,07,05,05,48,15.00
2015,07,05,05,49,15.00
2015,07,05,05,50,15.00
2015,07,05,05,51,14.90
2015,07,05,05,52,14.90
2015,07,05,05,53,14.90
2015,07,05,05,54,14.90
2015,07,05,05,55,14.90
2015,07,05,05,56,14.90
2015,07,05,05,57,14.90
2015,07,05,05,58,14.90
2015,07,05,05,59,14.90
2015,07,05,06,00,14.90
2015,07,05,06,01,14.90
2015,07,05,06,02,14.90
2015,07,05,06,03,14.90
2015,07,05,06,04,14.90
2015,07,05,06,05,14.90
2015,07,05,06,06,14.90
2015,07,05,06,07,14.90
2015,07,05,06,08,14.90
2015,07,05,06,09,14.90
2015,07,05,06,10,14.90
2015,07,05,06,11,14.90
2015,07,05,06,12,14.90
2015,07,05,06,13,15.00
2015,07,05,06,14,15.00
2015,07,05,06,15,15.00
2015,07,05,06,16,15.00
2015,07,05,06,17,15.00
2015,07,05,06,18,14.90
2015,07,05,06,19,14.90
2015,07,05,06,20,14.90
2015,07,05,06,21,14.90
2015,07,05,06,22,14.90
2015,07,05,06,23,14.80
2015,07,05,06,24,14.80
2015,07,05,06,25,14.80
2015,07,05,06,26,14.80
2015,07,05,06,27,14.80
2015,07,05,06,28,14.80
2015,07,05,06,29,14.90
2015,07,05,06,30,14.90
2015,07,05,06,31,14.90
2015,07,05,06,32,15.00
2015,07,05,06,33,15.10
2015,07,05,06,34,15.10
2015,07,05,06,35,15.10
2015,07,05,06,36,15.20
2015,07,05,06,37,15.20
2015,07,05,06,38,15.20
2015,07,05,06,39,15.20
2015,07,05,06,40,15.20
2015,07,05,06,41,15.20
2015,07,05,06,42,15.10
2015,07,05,06,43,15.10
2015,07,05,06,44,15.10
2015,07,05,06,45,15.10
2015,07,05,06,46,15.10
2015,07,05,06,47,15.10
2015,07,05,06,48,15.10
2015,07,05,06,49,15.00
2015,07,05,06,50,15.00
2015,07,05,06,51,15.00
2015,07,05,06,52,15.00
2015,07,05,06,53,15.10
2015,07,05,06,54,15.10
2015,07,05,06,55,15.10
2015,07,05,06,56,15.10
2015,07,05,06,57,15.10
2015,07,05,06,58,15.10
2015,07,05,06,59,15.10
2015,07,05,07,00,15.10
2015,07,05,07,01,15.10
2015,07,05,07,02,15.10
2015,07,05,07,03,15.10
2015,07,05,07,04,15.10
2015,07,05,07,05,15.10
2015,07,05,07,06,15.10
2015,07,05,07,07,15.10
2015,07,05,07,08,15.10
2015,07,05,07,09,15.10
2015,07,05,07,10,15.10
2015,07,05,07,11,15.10
2015,07,05,07,12,15.00
2015,07,05,07,13,15.10
2015,07,05,07,14,15.10
2015,07,05,07,15,15.10
2015,07,05,07,16,15.10
2015,07,05,07,17,15.10
2015,07,05,07,18,15.10
2015,07,05,07,19,15.20
2015,07,05,07,20,15.20
2015,07,05,07,21,15.20
2015,07,05,07,22,15.30
2015,07,05,07,23,15.30
2015,07,05,07,24,15.30
2015,07,05,07,25,15.40
2015,07,05,07,26,15.40
2015,07,05,07,27,15.50
2015,07,05,07,28,15.50
2015,07,05,07,29,15.60
2015,07,05,07,30,15.60
2015,07,05,07,31,15.70
2015,07,05,07,32,15.70
2015,07,05,07,33,15.70
2015,07,05,07,34,15.80
2015,07,05,07,35,15.80
2015,07,05,07,36,15.80
2015,07,05,07,37,15.80
2015,07,05,07,38,15.90
2015,07,05,07,39,15.90
2015,07,05,07,40,15.90
2015,07,05,07,41,15.90
2015,07,05,07,42,15.90
2015,07,05,07,43,15.90
2015,07,05,07,44,15.90
2015,07,05,07,45,15.80
2015,07,05,07,46,15.80
2015,07,05,07,47,15.80
2015,07,05,07,48,15.80
2015,07,05,07,49,15.80
2015,07,05,07,50,15.90
2015,07,05,07,51,15.90
2015,07,05,07,52,15.90
2015,07,05,07,53,15.90
2015,07,05,07,54,15.90
2015,07,05,07,55,16.00
2015,07,05,07,56,16.00
2015,07,05,07,57,16.00
2015,07,05,07,58,16.10
2015,07,05,07,59,16.10
2015,07,05,08,00,16.10
2015,07,05,08,01,16.10
2015,07,05,08,02,16.20
2015,07,05,08,03,16.20
2015,07,05,08,04,16.30
2015,07,05,08,05,16.30
2015,07,05,08,06,16.30
2015,07,05,08,07,16.40
2015,07,05,08,08,16.40
2015,07,05,08,09,16.50
2015,07,05,08,10,16.50
2015,07,05,08,11,16.50
2015,07,05,08,12,16.50
2015,07,05,08,13,16.60
2015,07,05,08,14,16.60
2015,07,05,08,15,16.60
2015,07,05,08,16,16.60
2015,07,05,08,17,16.70
2015,07,05,08,18,16.70
2015,07,05,08,19,16.70
2015,07,05,08,20,16.70
2015,07,05,08,21,16.70
2015,07,05,08,22,16.80
2015,07,05,08,23,16.80
2015,07,05,08,24,16.80
2015,07,05,08,25,16.80
2015,07,05,08,26,16.80
2015,07,05,08,27,16.80
2015,07,05,08,28,16.80
2015,07,05,08,29,16.90
2015,07,05,08,30,16.90
2015,07,05,08,31,16.90
2015,07,05,08,32,16.90
2015,07,05,08,33,16.90
2015,07,05,08,34,17.00
2015,07,05,08,35,17.00
2015,07,05,08,36,17.10
2015,07,05,08,37,17.10
2015,07,05,08,38,17.10
2015,07,05,08,39,17.10
2015,07,05,08,40,17.10
2015,07,05,08,41,17.20
2015,07,05,08,42,17.20
2015,07,05,08,43,17.20
2015,07,05,08,44,17.20
2015,07,05,08,45,17.30
2015,07,05,08,46,17.30
2015,07,05,08,47,17.30
2015,07,05,08,48,17.40
2015,07,05,08,49,17.40
2015,07,05,08,50,17.40
2015,07,05,08,51,17.40
2015,07,05,08,52,17.50
2015,07,05,08,53,17.50
2015,07,05,08,54,17.60
2015,07,05,08,55,17.60
2015,07,05,08,56,17.70
2015,07,05,08,57,17.70
2015,07,05,08,58,17.70
2015,07,05,08,59,17.80
2015,07,05,09,00,17.80
2015,07,05,09,01,17.80
2015,07,05,09,02,17.90
2015,07,05,09,03,17.90
2015,07,05,09,04,17.90
2015,07,05,09,05,18.00
2015,07,05,09,06,18.00
2015,07,05,09,07,18.00
2015,07,05,09,08,18.10
2015,07,05,09,09,18.10
2015,07,05,09,10,18.10
2015,07,05,09,11,18.10
2015,07,05,09,12,18.10
2015,07,05,09,13,18.10
2015,07,05,09,14,18.10
2015,07,05,09,15,18.20
2015,07,05,09,16,18.20
2015,07,05,09,17,18.20
2015,07,05,09,18,18.20
2015,07,05,09,19,18.20
2015,07,05,09,20,18.30
2015,07,05,09,21,18.30
2015,07,05,09,22,18.30
2015,07,05,09,23,18.30
2015,07,05,09,24,18.30
2015,07,05,09,25,18.30
2015,07,05,09,26,18.40
2015,07,05,09,27,18.40
2015,07,05,09,28,18.40
2015,07,05,09,29,18.40
2015,07,05,09,30,18.40
2015,07,05,09,31,18.40
2015,07,05,09,32,18.40
2015,07,05,09,33,18.40
2015,07,05,09,34,18.40
2015,07,05,09,35,18.40
2015,07,05,09,36,18.40
2015,07,05,09,37,18.50
2015,07,05,09,38,18.50
2015,07,05,09,39,18.50
2015,07,05,09,40,18.50
2015,07,05,09,41,18.50
2015,07,05,09,42,18.60
2015,07,05,09,43,18.60
2015,07,05,09,44,18.60
2015,07,05,09,45,18.60
2015,07,05,09,46,18.60
2015,07,05,09,47,18.60
2015,07,05,09,48,18.60
2015,07,05,09,49,18.60
2015,07,05,09,50,18.60
2015,07,05,09,51,18.60
2015,07,05,09,52,18.60
2015,07,05,09,53,18.60
2015,07,05,09,54,18.60
2015,07,05,09,55,18.70
2015,07,05,09,56,18.70
2015,07,05,09,57,18.70
2015,07,05,09,58,18.70
2015,07,05,09,59,18.70
2015,07,05,10,00,18.80
2015,07,05,10,01,18.80
2015,07,05,10,02,18.80
2015,07,05,10,03,18.90
2015,07,05,10,04,18.90
2015,07,05,10,05,19.00
2015,07,05,10,06,19.10
2015,07,05,10,07,19.10
2015,07,05,10,08,19.20
2015,07,05,10,09,19.30
2015,07,05,10,10,19.30
2015,07,05,10,11,19.40
2015,07,05,10,12,19.50
2015,07,05,10,13,19.60
2015,07,05,10,14,19.60
2015,07,05,10,15,19.70
2015,07,05,10,16,19.70
2015,07,05,10,17,19.70
2015,07,05,10,18,19.70
2015,07,05,10,19,19.70
2015,07,05,10,20,19.70
2015,07,05,10,21,19.70
2015,07,05,10,22,19.70
2015,07,05,10,23,19.60
2015,07,05,10,24,19.60
2015,07,05,10,25,19.60
2015,07,05,10,26,19.60
2015,07,05,10,27,19.60
2015,07,05,10,28,19.60
2015,07,05,10,29,19.60
2015,07,05,10,30,19.70
2015,07,05,10,31,19.70
2015,07,05,10,32,19.80
2015,07,05,10,33,19.90
2015,07,05,10,34,19.90
2015,07,05,10,35,20.00
2015,07,05,10,36,20.00
2015,07,05,10,37,20.10
2015,07,05,10,38,20.10
2015,07,05,10,39,20.20
2015,07,05,10,40,20.30
2015,07,05,10,41,20.30
2015,07,05,10,42,20.30
2015,07,05,10,43,20.40
2015,07,05,10,44,20.40
2015,07,05,10,45,20.40
2015,07,05,10,46,20.40
2015,07,05,10,47,20.40
2015,07,05,10,48,20.30
2015,07,05,10,49,20.30
2015,07,05,10,50,20.30
2015,07,05,10,51,20.30
2015,07,05,10,52,20.30
2015,07,05,10,53,20.30
2015,07,05,10,54,20.40
2015,07,05,10,55,20.40
2015,07,05,10,56,20.40
2015,07,05,10,57,20.40
2015,07,05,10,58,20.30
2015,07,05,10,59,20.30
2015,07,05,11,00,20.30
2015,07,05,11,01,20.30
2015,07,05,11,02,20.30
2015,07,05,11,03,20.30
2015,07,05,11,04,20.30
2015,07,05,11,05,20.30
2015,07,05,11,06,20.30
2015,07,05,11,07,20.40
2015,07,05,11,08,20.40
2015,07,05,11,09,20.40
2015,07,05,11,10,20.50
2015,07,05,11,11,20.50
2015,07,05,11,12,20.60
2015,07,05,11,13,20.60
2015,07,05,11,14,20.60
2015,07,05,11,15,20.60
2015,07,05,11,16,20.60
2015,07,05,11,17,20.60
2015,07,05,11,18,20.60
2015,07,05,11,19,20.60
2015,07,05,11,20,20.60
2015,07,05,11,21,20.60
2015,07,05,11,22,20.60
2015,07,05,11,23,20.60
2015,07,05,11,24,20.50
2015,07,05,11,25,20.60
2015,07,05,11,26,20.60
2015,07,05,11,27,20.60
2015,07,05,11,28,20.50
2015,07,05,11,29,20.60
2015,07,05,11,30,20.60
2015,07,05,11,31,20.60
2015,07,05,11,32,20.60
2015,07,05,11,33,20.60
2015,07,05,11,34,20.60
2015,07,05,11,35,20.60
2015,07,05,11,36,20.70
2015,07,05,11,37,20.70
2015,07,05,11,38,20.70
2015,07,05,11,39,20.70
2015,07,05,11,40,20.80
2015,07,05,11,41,20.80
2015,07,05,11,42,20.90
2015,07,05,11,43,21.00
2015,07,05,11,44,21.00
2015,07,05,11,45,21.10
2015,07,05,11,46,21.20
2015,07,05,11,47,21.30
2015,07,05,11,48,21.30
2015,07,05,11,49,21.40
2015,07,05,11,50,21.50
2015,07,05,11,51,21.60
2015,07,05,11,52,21.70
2015,07,05,11,53,21.70
2015,07,05,11,54,21.80
2015,07,05,11,55,21.90
2015,07,05,11,56,21.90
2015,07,05,11,57,22.00
2015,07,05,11,58,22.00
2015,07,05,11,59,22.10
2015,07,05,12,00,22.10
2015,07,05,12,01,22.20
2015,07,05,12,02,22.20
2015,07,05,12,03,22.20
2015,07,05,12,04,22.20
2015,07,05,12,05,22.20
2015,07,05,12,06,22.20
2015,07,05,12,07,22.20
2015,07,05,12,08,22.20
2015,07,05,12,09,22.10
2015,07,05,12,10,22.10
2015,07,05,12,11,22.10
2015,07,05,12,12,22.10
2015,07,05,12,13,22.10
2015,07,05,12,14,22.10
2015,07,05,12,15,22.10
2015,07,05,12,16,22.10
2015,07,05,12,17,22.10
2015,07,05,12,18,22.10
2015,07,05,12,19,22.10
2015,07,05,12,20,22.20
2015,07,05,12,21,22.20
2015,07,05,12,22,22.20
2015,07,05,12,23,22.20
2015,07,05,12,24,22.20
2015,07,05,12,25,22.20
2015,07,05,12,26,22.30
2015,07,05,12,27,22.30
2015,07,05,12,28,22.30
2015,07,05,12,29,22.40
2015,07,05,12,30,22.40
2015,07,05,12,31,22.50
2015,07,05,12,32,22.50
2015,07,05,12,33,22.50
2015,07,05,12,34,22.50
2015,07,05,12,35,22.50
2015,07,05,12,36,22.40
2015,07,05,12,37,22.40
2015,07,05,12,38,22.30
2015,07,05,12,39,22.30
2015,07,05,12,40,22.20
2015,07,05,12,41,22.10
2015,07,05,12,42,22.10
2015,07,05,12,43,22.00
2015,07,05,12,44,22.00
2015,07,05,12,45,22.00
2015,07,05,12,46,21.90
2015,07,05,12,47,21.90
2015,07,05,12,48,21.90
2015,07,05,12,49,21.80
2015,07,05,12,50,21.80
2015,07,05,12,51,21.80
2015,07,05,12,52,21.80
2015,07,05,12,53,21.80
2015,07,05,12,54,21.80
2015,07,05,12,55,21.80
2015,07,05,12,56,21.80
2015,07,05,12,57,21.80
2015,07,05,12,58,21.90
2015,07,05,12,59,21.90
2015,07,05,13,00,21.90
2015,07,05,13,01,21.90
2015,07,05,13,02,21.90
2015,07,05,13,03,21.90
2015,07,05,13,04,21.80
2015,07,05,13,05,21.80
2015,07,05,13,06,21.80
2015,07,05,13,07,21.80
2015,07,05,13,08,21.90
2015,07,05,13,09,21.90
2015,07,05,13,10,22.00
2015,07,05,13,11,22.00
2015,07,05,13,12,22.10
2015,07,05,13,13,22.20
2015,07,05,13,14,22.20
2015,07,05,13,15,22.30
2015,07,05,13,16,22.30
2015,07,05,13,17,22.40
2015,07,05,13,18,22.40
2015,07,05,13,19,22.50
2015,07,05,13,20,22.60
2015,07,05,13,21,22.60
2015,07,05,13,22,22.70
2015,07,05,13,23,22.70
2015,07,05,13,24,22.80
2015,07,05,13,25,22.80
2015,07,05,13,26,22.80
2015,07,05,13,27,22.90
2015,07,05,13,28,22.90
2015,07,05,13,29,23.00
2015,07,05,13,30,23.00
2015,07,05,13,31,23.10
2015,07,05,13,32,23.10
2015,07,05,13,33,23.10
2015,07,05,13,34,23.20
2015,07,05,13,35,23.20
2015,07,05,13,36,23.20
2015,07,05,13,37,23.20
2015,07,05,13,38,23.30
2015,07,05,13,39,23.30
2015,07,05,13,40,23.30
2015,07,05,13,41,23.30
2015,07,05,13,42,23.30
2015,07,05,13,43,23.30
2015,07,05,13,44,23.30
2015,07,05,13,45,23.30
2015,07,05,13,46,23.30
2015,07,05,13,47,23.30
2015,07,05,13,48,23.30
2015,07,05,13,49,23.40
2015,07,05,13,50,23.40
2015,07,05,13,51,23.40
2015,07,05,13,52,23.40
2015,07,05,13,53,23.40
2015,07,05,13,54,23.40
2015,07,05,13,55,23.50
2015,07,05,13,56,23.50
2015,07,05,13,57,23.60
2015,07,05,13,58,23.60
2015,07,05,13,59,23.60
2015,07,05,14,00,23.70
2015,07,05,14,01,23.70
2015,07,05,14,02,23.70
2015,07,05,14,03,23.80
2015,07,05,14,04,23.80
2015,07,05,14,05,23.80
2015,07,05,14,06,23.90
2015,07,05,14,07,23.90
2015,07,05,14,08,24.00
2015,07,05,14,09,24.00
2015,07,05,14,10,24.10
2015,07,05,14,11,24.20
2015,07,05,14,12,24.20
2015,07,05,14,13,24.20
2015,07,05,14,14,24.30
2015,07,05,14,15,24.30
2015,07,05,14,16,24.30
2015,07,05,14,17,24.40
2015,07,05,14,18,24.40
2015,07,05,14,19,24.50
2015,07,05,14,20,24.50
2015,07,05,14,21,24.50
2015,07,05,14,22,24.60
2015,07,05,14,23,24.60
2015,07,05,14,24,24.60
2015,07,05,14,25,24.70
2015,07,05,14,26,24.70
2015,07,05,14,27,24.70
2015,07,05,14,28,24.70
2015,07,05,14,29,24.70
2015,07,05,14,30,24.80
2015,07,05,14,31,24.80
2015,07,05,14,32,24.90
2015,07,05,14,33,24.90
2015,07,05,14,34,25.00
2015,07,05,14,35,25.00
2015,07,05,14,36,25.10
2015,07,05,14,37,25.10
2015,07,05,14,38,25.10
2015,07,05,14,39,25.10
2015,07,05,14,40,25.10
2015,07,05,14,41,25.20
2015,07,05,14,42,25.20
2015,07,05,14,43,25.20
2015,07,05,14,44,25.30
2015,07,05,14,45,25.30
2015,07,05,14,46,25.30
2015,07,05,14,47,25.30
2015,07,05,14,48,25.30
2015,07,05,14,49,25.30
2015,07,05,14,50,25.30
2015,07,05,14,51,25.30
2015,07,05,14,52,25.40
2015,07,05,14,53,25.40
2015,07,05,14,54,25.40
2015,07,05,14,55,25.40
2015,07,05,14,56,25.40
2015,07,05,14,57,25.50
2015,07,05,14,58,25.50
2015,07,05,14,59,25.50
2015,07,05,15,00,25.60
2015,07,05,15,01,25.60
2015,07,05,15,02,25.60
2015,07,05,15,03,25.60
2015,07,05,15,04,25.70
2015,07,05,15,05,25.70
2015,07,05,15,06,25.70
2015,07,05,15,07,25.70
2015,07,05,15,08,25.70
2015,07,05,15,09,25.70
2015,07,05,15,10,25.70
2015,07,05,15,11,25.70
2015,07,05,15,12,25.70
2015,07,05,15,13,25.70
2015,07,05,15,14,25.70
2015,07,05,15,15,25.70
2015,07,05,15,16,25.80
2015,07,05,15,17,25.80
2015,07,05,15,18,25.80
2015,07,05,15,19,25.80
2015,07,05,15,20,25.80
2015,07,05,15,21,25.80
2015,07,05,15,22,25.80
2015,07,05,15,23,25.80
2015,07,05,15,24,25.90
2015,07,05,15,25,25.90
2015,07,05,15,26,25.90
2015,07,05,15,27,25.90
2015,07,05,15,28,25.90
2015,07,05,15,29,25.90
2015,07,05,15,30,26.00
2015,07,05,15,31,26.00
2015,07,05,15,32,26.00
2015,07,05,15,33,26.10
2015,07,05,15,34,26.10
2015,07,05,15,35,26.10
2015,07,05,15,36,26.10
2015,07,05,15,37,26.10
2015,07,05,15,38,26.10
2015,07,05,15,39,26.10
2015,07,05,15,40,26.10
2015,07,05,15,41,26.10
2015,07,05,15,42,26.10
2015,07,05,15,43,26.10
2015,07,05,15,44,26.20
2015,07,05,15,45,26.20
2015,07,05,15,46,26.20
2015,07,05,15,47,26.20
2015,07,05,15,48,26.20
2015,07,05,15,49,26.20
2015,07,05,15,50,26.10
2015,07,05,15,51,26.10
2015,07,05,15,52,26.10
2015,07,05,15,53,26.00
2015,07,05,15,54,26.00
2015,07,05,15,55,25.90
2015,07,05,15,56,25.90
2015,07,05,15,57,25.80
2015,07,05,15,58,25.80
2015,07,05,15,59,25.80
2015,07,05,16,00,25.80
2015,07,05,16,01,25.80
2015,07,05,16,02,25.80
2015,07,05,16,03,25.70
2015,07,05,16,04,25.70
2015,07,05,16,05,25.70
2015,07,05,16,06,25.70
2015,07,05,16,07,25.70
2015,07,05,16,08,25.60
2015,07,05,16,09,25.60
2015,07,05,16,10,25.60
2015,07,05,16,11,25.60
2015,07,05,16,12,25.60
2015,07,05,16,13,25.60
2015,07,05,16,14,25.60
2015,07,05,16,15,25.60
2015,07,05,16,16,25.70
2015,07,05,16,17,25.70
2015,07,05,16,18,25.70
2015,07,05,16,19,25.70
2015,07,05,16,20,25.80
2015,07,05,16,21,25.80
2015,07,05,16,22,25.80
2015,07,05,16,23,25.80
2015,07,05,16,24,25.90
2015,07,05,16,25,25.90
2015,07,05,16,26,25.90
2015,07,05,16,27,26.00
2015,07,05,16,28,26.00
2015,07,05,16,29,26.10
2015,07,05,16,30,26.10
2015,07,05,16,31,26.20
2015,07,05,16,32,26.20
2015,07,05,16,33,26.30
2015,07,05,16,34,26.30
2015,07,05,16,35,26.30
2015,07,05,16,36,26.40
2015,07,05,16,37,26.40
2015,07,05,16,38,26.50
2015,07,05,16,39,26.50
2015,07,05,16,40,26.50
2015,07,05,16,41,26.60
2015,07,05,16,42,26.60
2015,07,05,16,43,26.60
2015,07,05,16,44,26.60
2015,07,05,16,45,26.70
2015,07,05,16,46,26.70
2015,07,05,16,47,26.70
2015,07,05,16,48,26.70
2015,07,05,16,49,26.80
2015,07,05,16,50,26.80
2015,07,05,16,51,26.80
2015,07,05,16,52,26.90
2015,07,05,16,53,26.90
2015,07,05,16,54,26.90
2015,07,05,16,55,26.90
2015,07,05,16,56,26.90
2015,07,05,16,57,26.90
2015,07,05,16,58,26.90
2015,07,05,16,59,26.90
2015,07,05,17,00,26.90
2015,07,05,17,01,26.90
2015,07,05,17,02,26.90
2015,07,05,17,03,26.90
2015,07,05,17,04,27.00
2015,07,05,17,05,27.00
2015,07,05,17,06,27.00
2015,07,05,17,07,27.10
2015,07,05,17,08,27.10
2015,07,05,17,09,27.10
2015,07,05,17,10,27.10
2015,07,05,17,11,27.10
2015,07,05,17,12,27.10
2015,07,05,17,13,27.10
2015,07,05,17,14,27.10
2015,07,05,17,15,27.10
2015,07,05,17,16,27.10
2015,07,05,17,17,27.10
2015,07,05,17,18,27.10
2015,07,05,17,19,27.00